"Pseudo-MPEC" for Arms060

Created 2025 Mar 19 11:31:03 UT using Find_Orb

Click here for an explanation of pseudo-MPECs

 
 Astrometry: 
     Arms060*4C2025 02 26.14581509 32 01.38 +29 09 12.3    ~2RC2 21.4 GVNEOCPV37
     Arms060 4C2025 02 26.14893509 32 01.40 +29 09 14.4    ~2RC2 21.3 GVNEOCPV37
     Arms060 4C2025 02 26.27275909 32 01.24 +29 09 04.3    ~2RC2 21.2 GVNEOCPV37
     Arms060 4C2025 02 26.27590609 32 01.24 +29 09 06.6    ~2RC2 21.4 GVNEOCPV37

Station data:
(V37) McDonald Observatory-LCO ELP  (N30.679868 W104.015170)  US/Texas.
   Observer J. D. Armstrong. Measurer M. Wawerzonnek. 1.0-m Ritchey-Chrétien
   + CCD.

Orbital elements:  Arms060
   Perihelion 2024 Dec 7.98767 +/- 44.5 TT = 23:42:14 (JD 2460652.48767)
Epoch 2025 Feb 26.0 TT = JDT 2460732.5   Earth MOID: 0.1100   Ma: 0.0925
M  36.02377665 +/- 28               (J2000 ecliptic)             AutoNEOCP
n   0.45022782 +/- 0.26             Peri.  329.58721 +/- 80
a   1.68596218 +/- 0.649            Node   111.54250 +/- 39
e   0.3569596 +/- 0.147             Incl.    5.62401 +/- 1.7
P   2.189/799.580d         H 22.30  G  0.15   U 11.8  SR
q 1.08414165 +/- 0.282    Q 2.28778270 +/- 1.9
From 4 observations 2025 Feb. 26 (3.1 hr); mean residual 0".86
Residuals in arcseconds: 
250226 V37  .13+  1.1-    250226 V37  .04+  1.3-    
250226 V37  .38+  1.1+    250226 V37  .10+  1.2+    

Ephemerides (geocentric):
Date (UTC) HH   RA             Dec           delta  r     elong  mag " sig PA
---- --------  ------------   ------------  ------ ------ -----  --- --------
2025 03 19 12  09 42 03.987   +27 11 46.80  .51617 1.4231 138.3 22.9  39d  90
2025 03 19 13  09 42 05.926   +27 11 25.24  .51654 1.4233 138.3 22.9  39d  90
2025 03 19 14  09 42 07.868   +27 11 03.65  .51690 1.4235 138.2 22.9  39d  90
2025 03 19 15  09 42 09.813   +27 10 42.04  .51727 1.4237 138.2 22.9  39d  90
2025 03 19 16  09 42 11.760   +27 10 20.41  .51763 1.4239 138.2 22.9  39d  90
2025 03 19 17  09 42 13.709   +27 09 58.76  .51800 1.4241 138.2 22.9  39d  90
2025 03 19 18  09 42 15.661   +27 09 37.08  .51837 1.4244 138.1 22.9  39d  90
2025 03 19 19  09 42 17.616   +27 09 15.39  .51873 1.4246 138.1 22.9  39d  90
2025 03 19 20  09 42 19.573   +27 08 53.67  .51910 1.4248 138.1 22.9  39d  90
2025 03 19 21  09 42 21.533   +27 08 31.93  .51947 1.4250 138.0 22.9  39d  90
2025 03 19 22  09 42 23.496   +27 08 10.17  .51983 1.4252 138.0 22.9  39d  90
2025 03 19 23  09 42 25.461   +27 07 48.39  .52020 1.4254 138.0 22.9  39d  90
2025 03 20 00  09 42 27.428   +27 07 26.58  .52057 1.4256 137.9 22.9  39d  90
2025 03 20 01  09 42 29.399   +27 07 04.76  .52094 1.4258 137.9 22.9  39d  90
2025 03 20 02  09 42 31.371   +27 06 42.91  .52130 1.4260 137.9 22.9  39d  90
2025 03 20 03  09 42 33.347   +27 06 21.05  .52167 1.4262 137.9 22.9  39d  90
2025 03 20 04  09 42 35.324   +27 05 59.16  .52204 1.4265 137.8 22.9  39d  90
2025 03 20 05  09 42 37.305   +27 05 37.25  .52241 1.4267 137.8 22.9  39d  90
2025 03 20 06  09 42 39.288   +27 05 15.32  .52278 1.4269 137.8 22.9  39d  90
2025 03 20 07  09 42 41.273   +27 04 53.37  .52315 1.4271 137.7 22.9  39d  90
2025 03 20 08  09 42 43.261   +27 04 31.40  .52352 1.4273 137.7 22.9  39d  90
2025 03 20 09  09 42 45.252   +27 04 09.41  .52388 1.4275 137.7 22.9  39d  90
2025 03 20 10  09 42 47.245   +27 03 47.39  .52425 1.4277 137.6 22.9  39d  90
2025 03 20 11  09 42 49.241   +27 03 25.36  .52462 1.4279 137.6 22.9  39d  90
2025 03 20 12  09 42 51.239   +27 03 03.30  .52499 1.4281 137.6 22.9  39d  90
2025 03 20 13  09 42 53.240   +27 02 41.23  .52536 1.4283 137.6 22.9  39d  90
2025 03 20 14  09 42 55.243   +27 02 19.13  .52573 1.4286 137.5 22.9  39d  90
2025 03 20 15  09 42 57.249   +27 01 57.01  .52610 1.4288 137.5 22.9  39d  90
2025 03 20 16  09 42 59.257   +27 01 34.87  .52647 1.4290 137.5 22.9  39d  90
2025 03 20 17  09 43 01.268   +27 01 12.71  .52684 1.4292 137.4 22.9  39d  90
2025 03 20 18  09 43 03.282   +27 00 50.53  .52721 1.4294 137.4 22.9  39d  90
2025 03 20 19  09 43 05.298   +27 00 28.33  .52758 1.4296 137.4 22.9  39d  90
2025 03 20 20  09 43 07.316   +27 00 06.11  .52796 1.4298 137.4 22.9  39d  90
2025 03 20 21  09 43 09.337   +26 59 43.87  .52833 1.4300 137.3 22.9  39d  90
2025 03 20 22  09 43 11.361   +26 59 21.61  .52870 1.4302 137.3 22.9  39d  90
2025 03 20 23  09 43 13.387   +26 58 59.32  .52907 1.4304 137.3 22.9  39d  90
2025 03 21 00  09 43 15.415   +26 58 37.02  .52944 1.4307 137.2 22.9  39d  90
2025 03 21 01  09 43 17.446   +26 58 14.70  .52981 1.4309 137.2 23.0  39d  90
2025 03 21 02  09 43 19.480   +26 57 52.35  .53019 1.4311 137.2 23.0  39d  90
2025 03 21 03  09 43 21.516   +26 57 29.99  .53056 1.4313 137.1 23.0  39d  90
2025 03 21 04  09 43 23.554   +26 57 07.61  .53093 1.4315 137.1 23.0  39d  90
2025 03 21 05  09 43 25.596   +26 56 45.20  .53130 1.4317 137.1 23.0  39d  90
2025 03 21 06  09 43 27.639   +26 56 22.78  .53168 1.4319 137.1 23.0  39d  90
2025 03 21 07  09 43 29.685   +26 56 00.33  .53205 1.4321 137.0 23.0  39d  90
2025 03 21 08  09 43 31.734   +26 55 37.87  .53242 1.4323 137.0 23.0  39d  90
2025 03 21 09  09 43 33.785   +26 55 15.38  .53279 1.4326 137.0 23.0  39d  90
2025 03 21 10  09 43 35.839   +26 54 52.87  .53317 1.4328 136.9 23.0  39d  90
2025 03 21 11  09 43 37.895   +26 54 30.35  .53354 1.4330 136.9 23.0  39d  90